| time (UTC) | temp F | wind direction | speed knots | gust knots | rain 1hr in | rain 24hr in | rain mn in | humidity % | barometer mb |
| 20260504044602 | 53 | 292 | 0.0 | 0.0 | 0.00 | 0.00 | 0.00 | 77 | 1017.9 |
| 20260504043055 | 53 | 292 | 0.0 | 0.0 | 0.00 | 0.00 | 0.00 | 73 | 1018.1 |
| 20260504041549 | 54 | 292 | 0.0 | 0.0 | 0.00 | 0.00 | 0.00 | 72 | 1018.3 |
| 20260504040101 | 55 | 292 | 0.0 | 0.0 | 0.00 | 0.00 | 0.00 | 70 | 1018.4 |
| 20260504034557 | 55 | 292 | 0.0 | 0.0 | 0.00 | 0.00 | 0.00 | 69 | 1018.5 |
| 20260504033114 | 56 | 292 | 0.0 | 0.0 | 0.00 | 0.00 | 0.00 | 67 | 1018.3 |
| 20260504031546 | 56 | 292 | 0.0 | 0.0 | 0.00 | 0.00 | 0.00 | 66 | 1018.4 |
| 20260504030048 | 57 | 292 | 0.0 | 0.0 | 0.00 | 0.00 | 0.00 | 66 | 1018.2 |
| 20260504024545 | 57 | 292 | 0.0 | 0.0 | 0.00 | 0.00 | 0.00 | 64 | 1018.2 |
| 20260504023058 | 57 | 292 | 0.0 | 0.0 | 0.00 | 0.00 | 0.00 | 63 | 1018.2 |
| 20260504021542 | 58 | 292 | 0.0 | 0.0 | 0.00 | 0.00 | 0.00 | 62 | 1018.0 |
| 20260504020042 | 59 | 292 | 0.0 | 0.0 | 0.00 | 0.00 | 0.00 | 60 | 1017.9 |
| 20260504014548 | 59 | 292 | 0.0 | 0.0 | 0.00 | 0.00 | 0.00 | 59 | 1017.5 |
| 20260504013046 | 60 | 292 | 0.0 | 0.0 | 0.00 | 0.00 | 0.00 | 57 | 1017.5 |
| 20260504011540 | 61 | 292 | 0.0 | 0.0 | 0.00 | 0.00 | 0.00 | 54 | 1017.4 |
| 20260504010047 | 62 | 292 | 0.0 | 0.0 | 0.00 | 0.00 | 0.00 | 53 | 1017.4 |
| 20260504004555 | 63 | 292 | 0.0 | 0.0 | 0.00 | 0.00 | 0.00 | 51 | 1017.4 |
| 20260504003039 | 64 | 292 | 0.0 | 0.0 | 0.00 | 0.00 | 0.00 | 49 | 1017.2 |
| 20260504001538 | 66 | 292 | 0.0 | 0.0 | 0.00 | 0.00 | 0.00 | 47 | 1017.0 |
| 20260504000037 | 66 | 292 | 0.0 | 0.9 | 0.00 | 0.00 | 0.00 | 46 | 1017.0 |
| 20260503234542 | 67 | 299 | 0.0 | 0.0 | 0.00 | 0.00 | 0.00 | 44 | 1017.1 |
| 20260503233037 | 67 | 279 | 0.0 | 0.0 | 0.00 | 0.00 | 0.00 | 43 | 1017.0 |
| 20260503231535 | 68 | 202 | 0.0 | 1.7 | 0.00 | 0.00 | 0.00 | 40 | 1017.0 |
| 20260503230038 | 68 | 346 | 0.0 | 2.6 | 0.00 | 0.00 | 0.00 | 42 | 1017.0 |
| 20260503224532 | 69 | 13 | 0.0 | 3.5 | 0.00 | 0.00 | 0.00 | 41 | 1016.9 |
| 20260503223031 | 69 | 336 | 0.0 | 1.7 | 0.00 | 0.00 | 0.00 | 41 | 1017.0 |
| 20260503221529 | 69 | 331 | 0.0 | 7.0 | 0.00 | 0.00 | 0.00 | 40 | 1017.1 |
| 20260503220028 | 71 | 118 | 0.0 | 5.2 | 0.00 | 0.00 | 0.00 | 38 | 1017.2 |
| 20260503214527 | 71 | 341 | 0.0 | 4.3 | 0.00 | 0.00 | 0.00 | 38 | 1017.4 |
| 20260503213024 | 71 | 325 | 0.0 | 7.0 | 0.00 | 0.00 | 0.00 | 38 | 1017.4 |
| 20260503211523 | 71 | 341 | 0.0 | 8.7 | 0.00 | 0.00 | 0.00 | 35 | 1017.5 |
| 20260503210026 | 72 | 43 | 0.0 | 5.2 | 0.00 | 0.00 | 0.00 | 37 | 1017.5 |
| 20260503204526 | 72 | 331 | 1.7 | 7.0 | 0.00 | 0.00 | 0.00 | 35 | 1017.7 |
| 20260503203022 | 71 | 344 | 2.6 | 7.0 | 0.00 | 0.00 | 0.00 | 36 | 1017.9 |
| 20260503201518 | 71 | 217 | 0.9 | 7.0 | 0.00 | 0.00 | 0.00 | 37 | 1018.2 |
| 20260503200016 | 71 | 171 | 0.0 | 5.2 | 0.00 | 0.00 | 0.00 | 37 | 1018.7 |
| 20260503194515 | 69 | 333 | 0.0 | 4.3 | 0.00 | 0.00 | 0.00 | 36 | 1018.8 |
| 20260503193022 | 70 | 327 | 0.9 | 4.3 | 0.00 | 0.00 | 0.00 | 38 | 1019.0 |
| 20260503191513 | 70 | 355 | 1.7 | 4.3 | 0.00 | 0.00 | 0.00 | 38 | 1019.2 |
| 20260503190010 | 69 | 169 | 0.9 | 7.0 | 0.00 | 0.00 | 0.00 | 39 | 1019.4 |
| 20260503184520 | 68 | 212 | 1.7 | 9.6 | 0.00 | 0.00 | 0.00 | 39 | 1019.7 |
| 20260503183010 | 68 | 271 | 1.7 | 7.0 | 0.00 | 0.00 | 0.00 | 37 | 1019.8 |
| 20260503181506 | 67 | 153 | 0.0 | 7.0 | 0.00 | 0.00 | 0.00 | 37 | 1019.9 |
| 20260503180012 | 67 | 331 | 0.0 | 4.3 | 0.00 | 0.00 | 0.00 | 37 | 1020.1 |
| 20260503174502 | 66 | 9 | 0.9 | 4.3 | 0.00 | 0.00 | 0.00 | 42 | 1020.1 |
| 20260503173002 | 66 | 307 | 0.0 | 7.0 | 0.00 | 0.00 | 0.00 | 39 | 1020.4 |
| 20260503171600 | 65 | 288 | 0.9 | 6.1 | 0.00 | 0.00 | 0.00 | 42 | 1020.6 |
| 20260503081531 | 44 | 243 | 0.0 | 0.0 | 0.00 | 0.00 | 0.00 | 86 | 1018.5 |
| 20260503071524 | 45 | 243 | 0.0 | 0.0 | 0.00 | 0.00 | 0.00 | 83 | 1018.2 |